SCP
-0 -0 0 0 0 0 0 -0 0 0 0 0 0 0 0 0 0 0 0 -0 -0 -0 -0 0 -0 0 0 0 0 0 0 0 0 0 0 0 0 0
-0 -0 -0 0 0 0 0 0 -0 0 0 0 0 0 0 0 0 0 0 0 -0 -0 -0 -0 0 0 0 0 0 0 0 0 0 0 0 0 0 0
0 -0 -0 -0 0 -0 0 -0 -0 0 0 0 0 0 0 0 0 0 0 0 0 -0 -0 -0 -0 0 0 0 0 0 0 0 0 0 0 0 0 0
-0 -0 -0 -0 -0 0 0 0 0 0 0 0 0 0 0 0 0 0 0 0 0 -0 -0 -0 -0 -0 0 0 0 0 0 0 0 0 0 0 0 0
0 -0 -0 -0 0 0 0 0 0 0 0 0 0 0 0 0 0 0 0 0 0 0 0 -0 0 0 0 0 0 0 0 0 0 0 0 0 0 0
0 -0 -0 -0 0 0 0 0 0 0 0 0 0 0 0 0 0 0 0 0 0 0 0 0 0 0 0 0 0 0 0 0 0 0 0 0 0 0
0 0 0 0 0 0 0 0 0 0 0 0 0 0 0 0 0 0 0 0 0 0 0 0 0 0 0 0 0 0 0 0 0 0 0 0 0 0
0 0 0 0 0 0 0 0 0 0 0 0 0 0 0 0 0 0 0 0 0 0 0 0 0 0 0 0 0 0 0 0 0 0 0 0 0 0
0 0 1 1 0 0 0 0 0 0 0 0 0 0 0 0 0 0 0 0 0 0 0 0 0 0 0 0 0 0 0 0 0 0 0 0 0 0
1 1 1 1 1 0 0 0 0 0 0 0 0 0 0 0 0 0 0 0 0 0 0 0 0 0 0 0 0 0 0 0 0 0 0 0 0 0
2 2 2 2 0 0 0 0 0 0 0 0 0 0 0 0 0 0 0 0 0 0 0 0 0 0 0 0 0 0 0 0 0 0 0 0 0 0
2 3 2 3 0 0 0 0 0 0 0 0 0 0 0 0 0 0 0 0 0 0 0 0 0 0 0 0 0 0 0 -0 0 0 -0 -0 -0 0
3 2 2 0 0 0 0 0 0 0 0 0 0 0 0 0 0 0 0 0 0 0 0 0 0 0 0 0 0 0 0 0 0 -0 -0 -0 -0 0
2 1 1 0 0 0 0 0 0 0 0 0 0 0 0 0 0 0 0 0 0 0 0 0 0 0 0 0 0 0 0 0 0 0 0 0 -0 0
1 1 0 0 0 0 0 0 0 0 0 0 0 0 0 0 0 0 0 0 0 0 0 0 0 0 0 0 0 0 0 0 0 0 0 0 0 0
0 0 0 0 0 0 0 0 0 0 0 0 0 0 0 0 0 0 0 0 0 0 0 0 0 0 0 0 0 0 0 0 0 0 0 0 0 0
0 0 0 0 0 0 0 0 0 0 0 0 0 0 0 0 0 0 0 0 0 0 0 0 0 0 0 0 0 0 0 0 0 0 0 0 0 0
0 0 0 0 0 0 0 0 0 0 0 0 0 0 0 0 0 0 0 0 0 0 0 0 0 0 0 0 0 0 0 0 0 0 0 0 0 0
0 0 0 0 0 0 0 0 0 0 0 0 0 0 0 0 0 0 0 0 0 0 0 0 0 0 0 0 0 0 0 0 0 0 0 0 0 0
0 0 0 0 0 0 0 0 0 0 0 0 0 0 0 0 0 0 0 0 0 0 0 0 0 0 0 0 0 0 0 0 0 0 0 0 0 0
0 0 0 0 0 0 0 0 0 0 0 0 0 0 0 0 0 0 0 0 0 0 0 0 0 0 0 0 0 0 0 0 0 0 0 0 0 0
0 0 0 0 0 0 0 0 0 0 0 0 0 0 0 0 0 0 0 0 0 0 0 0 0 0 0 0 0 0 0 0 0 0 0 0 0 0
0 0 0 0 0 0 0 0 0 0 0 0 0 0 0 0 0 0 0 0 0 0 0 0 0 0 0 0 0 0 0 0 0 0 0 0 0 0
Wind_Speed_500mb
26 37 42 31 23 24 28 26 19 22 44 38 44 40 34 30 28 28 22 20 16 17 16 18 17 15 15 21 24 27 31 36 39 40 41 43 43 46
31 32 34 48 40 39 33 31 34 26 19 26 48 45 38 34 29 32 27 25 20 20 20 16 12 10 9 12 18 25 30 32 32 34 35 37 40 41
36 34 33 30 39 42 35 31 37 36 25 18 24 36 34 36 37 34 30 23 17 20 13 8 8 7 8 8 10 13 15 20 26 30 35 38 39 38
46 42 40 37 38 42 38 30 29 37 35 31 32 42 37 38 35 31 28 24 18 17 14 13 12 9 8 6 6 5 5 7 9 13 19 25 30 36
50 53 52 46 43 43 46 41 34 39 37 34 34 41 38 45 38 34 32 31 27 21 22 16 15 15 13 10 8 8 7 6 5 5 7 10 15 19
59 56 54 50 47 42 42 47 49 44 45 43 34 41 44 45 41 34 36 39 35 29 27 18 11 13 17 16 15 13 12 10 9 9 8 8 8 11
60 63 59 57 50 46 45 43 52 53 49 55 54 48 51 56 52 37 28 42 39 33 30 27 20 12 9 16 16 12 15 14 11 14 15 15 14 12
61 61 66 63 60 55 50 47 49 52 55 52 49 56 54 57 48 42 29 41 47 45 42 33 30 22 18 15 15 11 9 13 20 22 22 24 24 21
64 63 65 70 68 67 60 55 55 52 53 56 54 48 63 57 51 51 45 36 44 36 39 44 39 33 25 24 22 18 15 18 24 26 24 21 20 21
74 74 70 69 74 75 72 67 60 61 56 52 57 56 52 62 62 58 53 41 40 41 41 42 37 40 33 30 26 21 16 23 13 8 4 1 2 4
83 87 87 83 77 76 79 78 66 65 63 54 48 49 64 62 59 58 66 56 55 53 55 48 38 39 36 33 28 21 14 12 7 5 7 8 9 13
78 90 89 90 89 83 85 83 75 69 63 62 59 57 55 64 66 62 68 66 66 58 55 48 41 40 41 36 30 22 16 11 15 8 7 6 3 5
74 77 79 91 94 95 86 80 80 63 60 63 57 55 53 70 70 65 66 68 65 59 58 57 48 45 45 35 39 30 22 18 14 12 6 3 4 5
66 72 75 72 73 71 75 82 81 68 62 65 59 58 57 64 77 70 66 62 57 53 48 42 38 51 54 45 36 32 33 29 26 21 18 13 14 12
62 67 70 66 60 53 65 83 71 67 65 61 59 58 56 57 60 60 58 54 52 54 56 55 45 47 61 56 44 39 35 35 34 28 29 25 20 17
51 52 53 47 49 47 37 45 59 65 64 65 62 53 52 58 56 56 64 64 63 58 53 44 46 49 50 54 49 43 28 28 26 30 30 34 27 26
36 43 52 54 48 45 51 51 56 59 64 62 57 55 59 54 47 50 60 58 69 69 55 46 56 56 49 49 53 53 49 42 41 32 31 33 36 31
48 44 50 61 64 63 61 56 55 60 58 60 61 62 64 63 54 57 58 60 64 67 62 60 53 54 56 59 57 53 51 49 47 46 44 44 40 39
52 47 48 57 67 65 61 63 63 67 58 67 69 69 65 63 59 61 63 64 60 46 41 45 49 60 63 67 67 62 55 50 45 45 39 39 40 37
50 50 56 59 62 64 69 69 66 67 62 71 75 76 76 72 67 75 66 64 58 51 54 53 48 57 62 65 58 46 42 40 35 40 42 46 42 35
45 53 62 61 65 66 68 66 67 69 65 73 78 83 87 87 83 72 66 69 72 72 66 59 59 59 59 57 63 62 45 46 42 36 39 48 51 47
42 46 57 63 66 66 65 62 61 64 65 73 81 87 95 100 101 95 86 79 74 67 59 62 52 63 62 67 72 59 48 44 44 45 45 44 55 57
48 46 52 60 63 68 69 68 60 62 66 69 73 80 90 98 101 97 93 88 75 75 71 68 68 66 53 60 60 52 46 42 43 51 54 53 55 57
Wind_Direction_500mb
225 221 223 212 206 226 241 240 209 187 203 202 200 211 218 226 234 225 216 236 243 273 289 297 288 272 239 229 224 222 225 230 237 242 244 246 245 246
233 226 221 217 221 229 237 241 238 227 223 217 226 235 218 230 217 221 242 261 272 280 294 294 275 259 246 228 226 228 231 234 234 236 237 241 243 245
230 235 234 221 223 230 236 241 230 226 231 213 217 227 221 223 226 227 239 251 261 269 293 317 311 265 243 238 232 230 229 233 238 240 242 242 243 244
234 239 243 237 233 232 237 237 226 216 225 221 197 208 214 224 240 240 243 241 237 240 275 298 318 294 269 241 226 232 225 228 236 241 242 245 244 243
234 237 248 250 242 233 231 233 226 223 228 228 206 207 211 214 220 234 243 238 232 248 244 263 295 284 266 255 251 254 263 273 282 292 282 266 254 253
242 247 244 251 247 235 231 227 226 225 225 229 211 211 216 221 228 236 235 231 236 224 227 253 250 287 253 252 253 253 249 264 283 301 314 318 304 277
242 247 249 251 251 243 238 233 226 231 227 226 228 219 218 217 222 239 241 225 226 231 242 241 248 259 231 241 237 261 256 265 277 288 287 290 292 290
246 246 247 247 249 252 247 238 235 233 235 230 225 228 222 225 230 231 238 206 215 229 237 245 233 239 246 230 231 254 257 279 284 281 276 277 275 271
253 251 249 250 248 248 249 247 238 236 234 237 234 228 226 233 234 229 229 231 223 221 231 234 244 239 234 233 233 237 270 289 293 286 275 271 267 260
256 258 258 255 253 251 247 246 240 235 233 227 226 233 231 233 243 245 242 238 220 228 216 230 241 249 231 233 225 232 273 299 284 275 269 314 1 300
253 258 259 259 258 255 252 253 246 241 236 232 231 227 232 235 240 235 226 214 214 221 217 228 233 235 242 234 229 227 274 273 238 197 138 99 90 40
253 253 255 255 258 253 253 254 249 237 235 234 225 234 244 242 239 231 228 218 218 224 224 219 227 219 214 221 219 241 258 234 188 154 140 132 93 43
261 261 257 256 254 259 264 266 266 250 241 226 234 246 254 244 236 229 226 232 229 237 239 234 229 211 212 218 218 234 227 216 213 216 239 238 292 306
267 268 267 262 258 258 262 262 256 240 237 226 239 257 250 240 236 234 228 228 232 243 223 214 213 214 214 220 217 212 226 227 230 238 247 259 264 266
269 270 267 267 264 263 257 259 237 239 241 241 257 261 251 239 238 223 221 231 232 230 216 213 230 219 213 223 234 229 236 237 229 239 242 253 267 272
276 265 259 259 247 251 240 244 245 245 244 245 258 252 246 237 231 228 223 221 222 224 225 216 214 213 212 219 224 225 223 220 236 249 254 253 257 264
267 261 263 255 244 246 240 239 242 243 246 248 237 238 236 224 221 219 219 227 229 226 219 211 211 212 221 223 228 233 235 237 243 253 256 255 255 268
274 251 250 253 254 250 242 241 245 249 249 239 234 226 220 221 225 215 209 214 219 224 227 227 219 220 230 237 236 237 238 239 240 244 253 261 263 257
262 255 259 255 254 252 249 250 251 254 251 239 231 222 216 219 209 209 212 216 220 217 222 231 239 238 237 241 242 239 245 248 249 245 248 243 250 259
266 248 255 259 259 257 252 252 252 252 243 235 228 222 216 210 211 212 210 220 227 218 229 216 232 234 239 245 243 235 241 242 239 249 246 243 254 256
266 256 255 260 258 259 257 256 254 251 246 234 229 223 216 213 210 207 213 223 217 223 215 219 226 233 253 249 249 245 244 238 242 249 242 241 246 250
281 268 260 262 258 261 261 256 249 247 244 235 231 228 224 220 222 229 219 221 225 232 225 234 249 250 247 243 245 243 247 238 249 251 246 245 242 242
280 281 271 259 263 258 257 253 246 243 243 241 237 230 225 224 222 222 222 225 227 233 233 238 248 241 243 242 241 237 236 251 246 247 244 249 251 252
Wind_Speed_850mb
26 37 42 31 23 24 28 26 19 22 44 38 44 40 34 30 28 28 22 20 16 17 16 18 17 15 15 21 24 27 31 36 39 40 41 43 43 46
31 32 34 48 40 39 33 31 34 26 19 26 48 45 38 34 29 32 27 25 20 20 20 16 12 10 9 12 18 25 30 32 32 34 35 37 40 41
36 34 33 30 39 42 35 31 37 36 25 18 24 36 34 36 37 34 30 23 17 20 13 8 8 7 8 8 10 13 15 20 26 30 35 38 39 38
46 42 40 37 38 42 38 30 29 37 35 31 32 42 37 38 35 31 28 24 18 17 14 13 12 9 8 6 6 5 5 7 9 13 19 25 30 36
50 53 52 46 43 43 46 41 34 39 37 34 34 41 38 45 38 34 32 31 27 21 22 16 15 15 13 10 8 8 7 6 5 5 7 10 15 19
59 56 54 50 47 42 42 47 49 44 45 43 34 41 44 45 41 34 36 39 35 29 27 18 11 13 17 16 15 13 12 10 9 9 8 8 8 11
60 63 59 57 50 46 45 43 52 53 49 55 54 48 51 56 52 37 28 42 39 33 30 27 20 12 9 16 16 12 15 14 11 14 15 15 14 12
61 61 66 63 60 55 50 47 49 52 55 52 49 56 54 57 48 42 29 41 47 45 42 33 30 22 18 15 15 11 9 13 20 22 22 24 24 21
64 63 65 70 68 67 60 55 55 52 53 56 54 48 63 57 51 51 45 36 44 36 39 44 39 33 25 24 22 18 15 18 24 26 24 21 20 21
74 74 70 69 74 75 72 67 60 61 56 52 57 56 52 62 62 58 53 41 40 41 41 42 37 40 33 30 26 21 16 23 13 8 4 1 2 4
83 87 87 83 77 76 79 78 66 65 63 54 48 49 64 62 59 58 66 56 55 53 55 48 38 39 36 33 28 21 14 12 7 5 7 8 9 13
78 90 89 90 89 83 85 83 75 69 63 62 59 57 55 64 66 62 68 66 66 58 55 48 41 40 41 36 30 22 16 11 15 8 7 6 3 5
74 77 79 91 94 95 86 80 80 63 60 63 57 55 53 70 70 65 66 68 65 59 58 57 48 45 45 35 39 30 22 18 14 12 6 3 4 5
66 72 75 72 73 71 75 82 81 68 62 65 59 58 57 64 77 70 66 62 57 53 48 42 38 51 54 45 36 32 33 29 26 21 18 13 14 12
62 67 70 66 60 53 65 83 71 67 65 61 59 58 56 57 60 60 58 54 52 54 56 55 45 47 61 56 44 39 35 35 34 28 29 25 20 17
51 52 53 47 49 47 37 45 59 65 64 65 62 53 52 58 56 56 64 64 63 58 53 44 46 49 50 54 49 43 28 28 26 30 30 34 27 26
36 43 52 54 48 45 51 51 56 59 64 62 57 55 59 54 47 50 60 58 69 69 55 46 56 56 49 49 53 53 49 42 41 32 31 33 36 31
48 44 50 61 64 63 61 56 55 60 58 60 61 62 64 63 54 57 58 60 64 67 62 60 53 54 56 59 57 53 51 49 47 46 44 44 40 39
52 47 48 57 67 65 61 63 63 67 58 67 69 69 65 63 59 61 63 64 60 46 41 45 49 60 63 67 67 62 55 50 45 45 39 39 40 37
50 50 56 59 62 64 69 69 66 67 62 71 75 76 76 72 67 75 66 64 58 51 54 53 48 57 62 65 58 46 42 40 35 40 42 46 42 35
45 53 62 61 65 66 68 66 67 69 65 73 78 83 87 87 83 72 66 69 72 72 66 59 59 59 59 57 63 62 45 46 42 36 39 48 51 47
42 46 57 63 66 66 65 62 61 64 65 73 81 87 95 100 101 95 86 79 74 67 59 62 52 63 62 67 72 59 48 44 44 45 45 44 55 57
48 46 52 60 63 68 69 68 60 62 66 69 73 80 90 98 101 97 93 88 75 75 71 68 68 66 53 60 60 52 46 42 43 51 54 53 55 57
Wind_Direction_850mb
225 221 223 212 206 226 241 240 209 187 203 202 200 211 218 226 234 225 216 236 243 273 289 297 288 272 239 229 224 222 225 230 237 242 244 246 245 246
233 226 221 217 221 229 237 241 238 227 223 217 226 235 218 230 217 221 242 261 272 280 294 294 275 259 246 228 226 228 231 234 234 236 237 241 243 245
230 235 234 221 223 230 236 241 230 226 231 213 217 227 221 223 226 227 239 251 261 269 293 317 311 265 243 238 232 230 229 233 238 240 242 242 243 244
234 239 243 237 233 232 237 237 226 216 225 221 197 208 214 224 240 240 243 241 237 240 275 298 318 294 269 241 226 232 225 228 236 241 242 245 244 243
234 237 248 250 242 233 231 233 226 223 228 228 206 207 211 214 220 234 243 238 232 248 244 263 295 284 266 255 251 254 263 273 282 292 282 266 254 253
242 247 244 251 247 235 231 227 226 225 225 229 211 211 216 221 228 236 235 231 236 224 227 253 250 287 253 252 253 253 249 264 283 301 314 318 304 277
242 247 249 251 251 243 238 233 226 231 227 226 228 219 218 217 222 239 241 225 226 231 242 241 248 259 231 241 237 261 256 265 277 288 287 290 292 290
246 246 247 247 249 252 247 238 235 233 235 230 225 228 222 225 230 231 238 206 215 229 237 245 233 239 246 230 231 254 257 279 284 281 276 277 275 271
253 251 249 250 248 248 249 247 238 236 234 237 234 228 226 233 234 229 229 231 223 221 231 234 244 239 234 233 233 237 270 289 293 286 275 271 267 260
256 258 258 255 253 251 247 246 240 235 233 227 226 233 231 233 243 245 242 238 220 228 216 230 241 249 231 233 225 232 273 299 284 275 269 314 1 300
253 258 259 259 258 255 252 253 246 241 236 232 231 227 232 235 240 235 226 214 214 221 217 228 233 235 242 234 229 227 274 273 238 197 138 99 90 40
253 253 255 255 258 253 253 254 249 237 235 234 225 234 244 242 239 231 228 218 218 224 224 219 227 219 214 221 219 241 258 234 188 154 140 132 93 43
261 261 257 256 254 259 264 266 266 250 241 226 234 246 254 244 236 229 226 232 229 237 239 234 229 211 212 218 218 234 227 216 213 216 239 238 292 306
267 268 267 262 258 258 262 262 256 240 237 226 239 257 250 240 236 234 228 228 232 243 223 214 213 214 214 220 217 212 226 227 230 238 247 259 264 266
269 270 267 267 264 263 257 259 237 239 241 241 257 261 251 239 238 223 221 231 232 230 216 213 230 219 213 223 234 229 236 237 229 239 242 253 267 272
276 265 259 259 247 251 240 244 245 245 244 245 258 252 246 237 231 228 223 221 222 224 225 216 214 213 212 219 224 225 223 220 236 249 254 253 257 264
267 261 263 255 244 246 240 239 242 243 246 248 237 238 236 224 221 219 219 227 229 226 219 211 211 212 221 223 228 233 235 237 243 253 256 255 255 268
274 251 250 253 254 250 242 241 245 249 249 239 234 226 220 221 225 215 209 214 219 224 227 227 219 220 230 237 236 237 238 239 240 244 253 261 263 257
262 255 259 255 254 252 249 250 251 254 251 239 231 222 216 219 209 209 212 216 220 217 222 231 239 238 237 241 242 239 245 248 249 245 248 243 250 259
266 248 255 259 259 257 252 252 252 252 243 235 228 222 216 210 211 212 210 220 227 218 229 216 232 234 239 245 243 235 241 242 239 249 246 243 254 256
266 256 255 260 258 259 257 256 254 251 246 234 229 223 216 213 210 207 213 223 217 223 215 219 226 233 253 249 249 245 244 238 242 249 242 241 246 250
281 268 260 262 258 261 261 256 249 247 244 235 231 228 224 220 222 229 219 221 225 232 225 234 249 250 247 243 245 243 247 238 249 251 246 245 242 242
280 281 271 259 263 258 257 253 246 243 243 241 237 230 225 224 222 222 222 225 227 233 233 238 248 241 243 242 241 237 236 251 246 247 244 249 251 252